User: anonymous   Login
Location: Mount Kobau Star Party
(49.1167°N, 119.7333°W)
Time: 10:01:27
(UTC-07:00)
Language:

TSX-5 - Orbit

View from above orbital plane
View from above orbital plane
View from above satellite
View from above satellite

Ground track
Ground track

The orbit data is extracted from the following two-line orbital elements,

1 26374U 00030A   16182.22378696  .00001161  00000-0  10632-3 0  9990
2 26374  68.9306 245.5633 0657604 313.6988  41.1377 14.03484684806694
Epoch (UTC): 30 June 2016 05:22:15
Eccentricity: 0.0657604
inclination: 68.9306°
perigee height: 404 km
apogee height: 1359 km
right ascension of ascending node: 245.5633°
argument of perigee: 313.6988°
revolutions per day: 14.03484684
mean anomaly at epoch: 41.1377°
orbit number at epoch: 80669

The dashed part of the orbit path shows where the satellite is in the earth's shadow,  

DLR